Location: Rumah Dana
(3.1167°N, 113.0167°E)
Time: 20:18:52
(UTC+00:00)

Nadezhda 2 Rocket - Pass Details

Date: 03 August 2024
Orbit: 947 x 1010 km, 83.0° (Epoch: 11 September)

Event Time Altitude Azimuth Distance (km) Brightness Sun altitude
Rises 20:41:40 0° 352° (N) 3,632 7.7 -25.7°
Reaches altitude 10° 20:44:09 10° 351° (N) 2,695 6.9 -25.1°
Maximum altitude 20:50:18 72° 267° (W) 1,023 4.3 -23.7°
Drops below altitude 10° 20:56:34 10° 183° (S) 2,747 6.6 -22.2°
Sets 20:59:07 0° 181° (S) 3,705 7.3 -21.6°
